Regional Weather Roundup
Issued by NWS Sterling, VA

Home | Current Version | Previous Version | Text Only | Print | Product List | Glossary Off
Versions: 1 2 3 4 5 6 7 8 9 10 11 12 13 14 15 16 17 18 19 20 21 22 23 24 25 26 27 28 29 30 31 32 33 34 35 36 37 38 39 40 41 42 43 44 45 46 47 48 49 50

000
ASUS41 KLWX 280810
RWRLWX

REGIONAL WEATHER ROUNDUP
NATIONAL WEATHER SERVICE BALTIMORE MD/WASHINGTON DC
400 AM EDT MON JUL 28 2014

Note: "FAIR" indicates few or no clouds below 12,000 feet
with no significant weather and/or obstructions to visibility.
 TC=TEMPERATURE CELSIUS

 * =Non NWS site. Station does not report precipitation (e.g. rain,
    snow, etc.), thunder, or fog.

DCZ001-MDZ009-015-VAZ040>042-051-053>054-280900-
WASHINGTON METRO
  /KDAA//-FT BELVOIR

CITY           SKY/WX    TMP DP  RH WIND       PRES   REMARKS
WASHINGTON NAT CLOUDY    77  68  73 W6        29.60S
DULLES         MOCLDY    67  66  97 CALM      29.60F
ANDREWS AFB    CLOUDY    76  71  84 W3        29.60S
QUANTICO       CLOUDY    76  71  85 CALM      29.60F
COLLEGE PARK*  CLOUDY    73  70  88 W3        29.60R
LEESBURG*      PTCLDY    68  68 100 CALM      29.61F
MANASSAS*      MOCLDY    70  68  94 CALM      29.60F
GAITHERSBURG*  PTCLDY    68  66  94 CALM      29.64F

$$

MDZ006>007-011-014-280900-
BALTIMORE METRO

CITY           SKY/WX    TMP DP  RH WIND       PRES   REMARKS
BWI AIRPORT    CLOUDY    70  69  97 CALM      29.58F
MD SCIENCE CTR   N/A     72  68  87 MISG      29.59S
MARTIN STATE   CLOUDY    70  70 100 CALM      29.61R
ANNAPOLIS      CLOUDY    77  72  84 W5        29.58S
FORT MEADE*    CLOUDY    70  68  94 W3        29.61S

$$

MDZ012-015-019>023-280900-
MARYLAND EASTERN SHORE

CITY           SKY/WX    TMP DP  RH WIND       PRES   REMARKS
OCEAN CITY     PTCLDY    77  73  87 SW7       29.60F
SALISBURY      NOT AVBL
BAY BRIDGE AP*   N/A     77  72  83 W8        29.59R
CAMBRIDGE*     CLOUDY    79  72  78 W7        29.59S
EASTON*        CLOUDY    78  78 100 CALM      29.63S

$$

MDZ017>025-280900-
SOUTHERN MARYLAND

CITY           SKY/WX    TMP DP  RH WIND       PRES   REMARKS
PATUXENT RIVER MOCLDY    77  71  82 SW9       29.59S
ST INIGOES     PTCLDY    78  70  76 SW9       29.59F
LEONARDTOWN*   PTCLDY    77  70  78 SW6       29.62S

$$

MDZ003>005-280900-
NORTH CENTRAL MARYLAND

CITY           SKY/WX    TMP DP  RH WIND       PRES   REMARKS
FREDERICK*     PTCLDY    64  64 100 CALM      29.61F FOG
HAGERSTOWN APT MOCLDY    65  63  93 CALM      29.61S FOG
WESTMINSTER*   FOG       66  64  94 SW5       29.60F VSB 1/4

$$

MDZ501>502-280900-
WESTERN MARYLAND

CITY           SKY/WX    TMP DP  RH WIND       PRES   REMARKS
OAKLAND*       CLOUDY    61 N/A N/A W8        29.72F HAZE
CUMBERLAND*    PTCLDY    68  66  94 SE6       29.66F

$$

VAZ025>031-280900-
SHENANDOAH VALLEY

CITY           SKY/WX    TMP DP  RH WIND       PRES   REMARKS
WINCHESTER*    PTCLDY    68  64  88 CALM      29.61F
STAUNTON*      CLEAR     72  62  71 SW6       29.69S

$$

WVZ021-048>050-054>055-280900-
EASTERN WEST VIRGINIA PANHANDLE

CITY           SKY/WX    TMP DP  RH WIND       PRES   REMARKS
MARTINSBURG    PTCLDY    68  63  84 SW6       29.61F
PETERSBURG*    PTCLDY    66  61  85 CALM      29.67S

$$

VAZ036>039-050-280900-
CENTRAL FOOTHILLS

CITY           SKY/WX    TMP DP  RH WIND       PRES   REMARKS
CHARLOTTESVILL MOCLDY    75  62  64 VRB6      29.63S
ORANGE*        PTCLDY    72  70  94 S3        29.63F

$$

VAZ055>057-280900-
NORTH AND CENTRAL PIEDMONT

CITY           SKY/WX    TMP DP  RH WIND       PRES   REMARKS
FREDERICKSBRG* CLOUDY    78  72  83 SW7       29.59F
STAFFORD*      MOCLDY    76  76 100 SW5       29.64S

$$

NCZ024-NYZ072-PAZ021-071-VAZ022-071-280900-
OTHER REGIONAL OBSERVATIONS

CITY           SKY/WX    TMP DP  RH WIND       PRES   REMARKS
NEW YORK CITY  LGT RAIN  70  67  90 VRB6      29.60F
PHILADELPHIA   CLOUDY    70  66  87 S8        29.58S
PITTSBURGH     CLOUDY    63  61  93 W9        29.65S
ROANOKE        MOCLDY    73  64  73 W10G21    29.76F
RICHMOND       MOCLDY    79  71  76 SW12      29.63F
RALEIGH        CLOUDY    81  63  54 W8        29.75F

$$

ANZ530>537-280900-
MARINE OBSERVATIONS

STATION/POSITION TIME  TEMP    WIND        PRES
                       AIR SEA DIR/SP/G
                 (UTC) (F)     (DEG/KT/KT) (MB)
THOMAS PT LIGHT  0800   78 79  260/ 11/ 12 1002.4S
BALT KEY BRIDGE  0800          240/  5/  5 1001.8R
COVE POINT       0800   78     270/ 11/ 14 1002.0S
LEWISETTA        0800   78 80  250/  9/ 11 1002.0F
SOLOMONS ISLAND  0800      80                N/A
PINEY POINT      0800          260/ 11/ 13   N/A

$$



USA.gov is the U.S. government's official web portal to all federal, state and local government web resources and services.